Location: Chagrin Falls Park
(41.4139°N, 81.3865°W)
Time: 07:19:28
(UTC+00:00)

ISS - Visible Passes

Search period start: 30 July 2021 00:00
Search period end: 09 August 2021 00:00
Orbit: 419 x 421 km, 51.6° (Epoch: 30 July)

Date Brightness Start Highest point End Pass type
(mag) Time Alt. Az. Time Alt. Az. Time Alt. Az.
30 Jul -2.6 01:49:09 10° NW 01:52:19 37° NNE 01:54:48 15° E visible
30 Jul -1.7 03:26:05 10° WNW 03:27:46 22° W 03:27:46 22° W visible
31 Jul -3.4 02:38:34 10° WNW 02:41:52 50° SW 02:42:09 48° SSW visible
01 Aug -3.8 01:51:12 10° NW 01:54:35 87° SSW 01:56:36 22° SE visible
02 Aug -1.6 02:41:27 10° W 02:43:47 17° SW 02:44:04 17° SW visible
03 Aug -2.3 01:53:38 10° WNW 01:56:36 29° SW 01:58:39 16° S visible
06 Aug -1.3 01:09:00 10° W 01:11:16 17° SW 01:13:32 10° S visible
